Location: *
(34.0486°S, 61.7880°E)
Time: 16:53:30
(UTC+00:00)

NOAA 12 - Pass Details

Date: 01 April 2020
Orbit: 795 x 815 km, 98.5° (Epoch: 27 May)

Event Time Altitude Azimuth Distance (km) Brightness Sun altitude
Rises 14:32:56 0° 170° (S) 3,361 7.2 -10.3°
Reaches altitude 10° 14:35:18 10° 171° (S) 2,425 6.5 -10.7°
Maximum altitude 14:40:40 77° 255° (WSW) 844 4.3 -11.9°
Drops below altitude 10° 14:46:00 10° 341° (NNW) 2,404 6.8 -13.0°
Sets 14:48:19 0° 342° (NNW) 3,329 7.5 -13.4°
